Weather History for Sierra Vista, AZ

Change the Weather History Date:

Saturday, November 16, 2013

  Actual Average Record
Temperature  
Mean Temperature 61 °F -  
Max Temperature 68 °F 66 °F 78 °F (1983)
Min Temperature 54 °F 44 °F 26 °F (1993)
Degree Days  
Heating Degree Days 4    
Growing Degree Days 11 (Base 50)    
Moisture  
Dew Point 38 °F    
Average Humidity 46    
Maximum Humidity 58    
Minimum Humidity 24    
Precipitation  
Precipitation 0.00 in - - ()
Sea Level Pressure  
Sea Level Pressure 29.77 in    
Wind  
Wind Speed 14 mph (SSW)    
Max Wind Speed 26 mph    
Max Gust Speed 33 mph    
Visibility 10 miles    
Events      
Averages and records for this station are not official NWS values.
T = Trace of Precipitation, MM = Missing Value Source: NWS Daily Summary

Daily Weather History Graph

Daily Weather History Graph

Search for Another Location

Airport:

Trip Planner

Search our weather history database for the weather conditions in past years. The results will help you decide how hot, cold, wet, or windy it might be!

Date:

Astronomy

Nov. 16, 2013 Rise Set
Actual Time 6:50 AM MST 5:21 PM MST
Civil Twilight 6:24 AM MST 5:47 PM MST
Nautical Twilight 5:55 AM MST 6:16 PM MST
Astronomical Twilight 5:26 AM MST 6:45 PM MST
Moon 4:57 PM MST (11/16) 5:53 AM MST (11/16)
Length of Visible Light 11h 22m
Length of Day
10h 31m
Waxing Gibbous, 99% of the Moon is Illuminated
Nov 16
Waxing Gibbous
Nov 17
Full
Nov 25
Last Quarter
Dec 2
New
Dec 9
First Quarter

Hourly Weather History & Observations

Time (MST) Temp. Dew Point Humidity Pressure Visibility Wind Dir Wind Speed Gust Speed Precip Events Conditions
12:56 AM 59.0 °F 43.0 °F 55% 29.67 in 10.0 mi SW 19.6 mph 27.6 mph N/A   Partly Cloudy
1:56 AM 57.9 °F 43.0 °F 58% 29.68 in 10.0 mi SW 12.7 mph 24.2 mph N/A   Scattered Clouds
2:56 AM 57.9 °F 41.0 °F 53% 29.68 in 10.0 mi WSW 26.5 mph 33.4 mph N/A   Clear
3:56 AM 55.9 °F 39.9 °F 55% 29.69 in 10.0 mi WSW 12.7 mph 29.9 mph N/A   Clear
4:56 AM 57.0 °F 37.0 °F 47% 29.71 in 10.0 mi SSE 8.1 mph - N/A   Clear
5:56 AM 55.0 °F 37.9 °F 53% 29.74 in 10.0 mi Calm Calm - N/A   Partly Cloudy
6:56 AM 54.0 °F 37.9 °F 55% 29.76 in 10.0 mi SSW 6.9 mph - N/A   Scattered Clouds
7:56 AM 57.0 °F 39.0 °F 51% 29.78 in 10.0 mi South 13.8 mph 20.7 mph N/A   Clear
8:56 AM 60.1 °F 37.9 °F 44% 29.80 in 10.0 mi SSW 11.5 mph 21.9 mph N/A   Clear
9:56 AM 62.1 °F 37.9 °F 41% 29.80 in 10.0 mi SSW 18.4 mph - N/A   Clear
10:56 AM 64.0 °F 37.0 °F 37% 29.79 in 10.0 mi South 23.0 mph 29.9 mph N/A   Clear
11:56 AM 66.9 °F 34.0 °F 30% 29.77 in 10.0 mi SW 12.7 mph 20.7 mph N/A   Clear
12:56 PM 68.0 °F 30.0 °F 24% 29.75 in 10.0 mi SW 15.0 mph 29.9 mph N/A   Clear
1:56 PM 66.9 °F 33.1 °F 28% 29.73 in 10.0 mi SSW 17.3 mph 31.1 mph N/A   Clear
2:56 PM 66.9 °F 34.0 °F 30% 29.73 in 10.0 mi WSW 21.9 mph 32.2 mph N/A   Clear
3:56 PM 66.0 °F 36.0 °F 33% 29.75 in 10.0 mi WSW 16.1 mph 25.3 mph N/A   Clear
4:56 PM 63.0 °F 37.9 °F 40% 29.76 in 10.0 mi SW 10.4 mph 27.6 mph N/A   Clear
5:56 PM 60.1 °F 39.9 °F 47% 29.78 in 10.0 mi WSW 10.4 mph - N/A   Clear
6:56 PM 59.0 °F 39.0 °F 48% 29.82 in 10.0 mi SW 9.2 mph 19.6 mph N/A   Partly Cloudy
7:56 PM 55.0 °F 39.9 °F 57% 29.85 in 10.0 mi Calm Calm - N/A   Clear
8:56 PM 55.0 °F 39.0 °F 55% 29.86 in 10.0 mi Calm Calm - N/A   Clear
9:56 PM 55.0 °F 39.0 °F 55% 29.86 in 10.0 mi SSW 8.1 mph - N/A   Clear
10:56 PM 55.0 °F 37.9 °F 53% 29.86 in 10.0 mi South 21.9 mph 27.6 mph N/A   Clear
11:56 PM 55.0 °F 39.0 °F 55% 29.86 in 10.0 mi South 17.3 mph 25.3 mph N/A   Clear